Tracking 20093 objects as of 14-Dec-2019
HD Live streaming from Space Station
objects crossing your sky now

COSMOS 2310

Track COSMOS 2310 now!
10-day predictions
COSMOS 2310 is classified as:


NORAD ID: 23526
Int'l Code: 1995-012A
Perigee: 983.1 km
Apogee: 1,016.8 km
Inclination: 82.9 °
Period: 105.0 minutes
Semi major axis: 7370 km
RCS: 2.0035 m2 (large)
Launch date: March 21, 1995
Source: Commonwealth of Independent States (former USSR) (CIS)
Launch site: PLESETSK MISSILE AND SPACE COMPLEX (PKMTR)
aabbcc
Your satellite tracking list
Your tracking list is empty




NASA's NSSDC Master Catalog

Two Line Element Set (TLE):
1 23526U 95012A   19348.44291666  .00000037  00000-0  23910-4 0  9997
2 23526  82.9459  99.9995 0022862  54.2455 349.6219 13.71894308238261
Source of the keplerian elements: AFSPC